Overview Statistics Trail Chart Weather Telemetry Raw packets
 

This is the latest recevied weather packets stored in our database for station/object OK1FET-5. If no packets are shown the sender has not sent any weather packets the latest 10 day(s).

<< 1 2 3 4 >>
Time Temp. Humidity Pressure Rain* Wind** Luminosity Snow
1788585486 15.56° C 78% 1019.5 hPa - - - -
1788584890 13.33° C 83% 1019.4 hPa - - - -
1788584294 13.33° C 83% 1019.2 hPa - - - -
1788583709 13.33° C 82% 1019 hPa - - - -
1788583103 13.33° C 82% 1018.9 hPa - - - -
1788582507 13.33° C 82% 1018.9 hPa - - - -
1788581912 13.89° C 82% 1018.7 hPa - - - -
1788580720 13.89° C 81% 1018.8 hPa - - - -
1788580124 13.89° C 81% 1018.7 hPa - - - -
1788579529 13.89° C 81% 1018.4 hPa - - - -
1788578933 13.89° C 82% 1017.8 hPa - - - -
1788577742 13.89° C 80% 1018.1 hPa - - - -
1788577146 13.89° C 79% 1018.3 hPa - - - -
1788576550 14.44° C 80% 1018.1 hPa - - - -
1788575955 14.44° C 77% 1017.8 hPa - - - -
1788575359 15° C 75% 1017.8 hPa - - - -
1788574763 15° C 73% 1017.4 hPa - - - -
1788574167 15.56° C 71% 1017.5 hPa - - - -
1788573572 15° C 72% 1017.1 hPa - - - -
1788572976 15° C 73% 1017.2 hPa - - - -
1788572380 15.56° C 73% 1017.4 hPa - - - -
1788571784 15.56° C 73% 1016.8 hPa - - - -
1788571189 15.56° C 73% 1016.8 hPa - - - -
1788570593 15.56° C 73% 1016.4 hPa - - - -
1788569997 15.56° C 75% 1016.4 hPa - - - -

* Rain since midnight (hover to see other rain measurements)
** Current wind speed in m/s (hover to see current wind gust speed)